Weather History for Paganella, Italy

Change the Weather History Date:

Tuesday, September 3, 2013

  Actual Average Record
Temperature  
Mean Temperature 52 °F -  
Max Temperature 59 °F 49 °F 62 °F (2011)
Min Temperature 44 °F 40 °F 33 °F (2003)
Degree Days  
Heating Degree Days 14    
Growing Degree Days 2 (Base 50)    
Moisture  
Dew Point 36 °F    
Average Humidity 51    
Maximum Humidity 58    
Minimum Humidity 38    
Precipitation  
Precipitation 0.00 in 0.12 in - ()
Sea Level Pressure  
Sea Level Pressure 30.43 in    
Wind  
Wind Speed 5 mph ()    
Max Wind Speed 12 mph    
Max Gust Speed -    
Averages and records for this station are not official NWS values.
T = Trace of Precipitation, MM = Missing Value Source: Averaged Metar Reports

Daily Weather History Graph

Daily Weather History Graph

Search for Another Location

Airport:

Trip Planner

Search our weather history database for the weather conditions in past years. The results will help you decide how hot, cold, wet, or windy it might be!

Date:

Astronomy

Sep. 03, 2013 Rise Set
Actual Time 6:38 AM CEST 7:50 PM CEST
Civil Twilight 6:08 AM CEST 8:21 PM CEST
Nautical Twilight 5:30 AM CEST 8:58 PM CEST
Astronomical Twilight 4:51 AM CEST 9:37 PM CEST
Moon 4:32 AM CEST (9/3) 6:30 PM CEST (9/3)
Length of Visible Light 14h 13m
Length of Day
13h 11m
Waning Crescent, 4% of the Moon is Illuminated
Sep 3
Waning Crescent
Sep 5
New
Sep 12
First Quarter
Sep 19
Full
Sep 27
Last Quarter

Hourly Weather History & Observations

Time (CEST) Temp. Windchill Dew Point Humidity Pressure Visibility Wind Dir Wind Speed Gust Speed Precip Events Conditions
12:55 AM 46.4 °F 42.9 °F 32.0 °F 57% 30.39 in - NNW 6.9 mph - N/A   Clear
1:55 AM 44.6 °F 40.2 °F 30.2 °F 57% 30.39 in - North 8.1 mph - N/A   Clear
2:00 AM 45 °F - 30 °F 43%  in 25 mi North 8.1 mph - -  
2:55 AM 46.4 °F 42.9 °F 30.2 °F 53% 30.39 in - North 6.9 mph - N/A   Clear
3:55 AM 46.4 °F 42.9 °F 30.2 °F 53% 30.39 in - North 6.9 mph - N/A   Clear
4:55 AM 46.4 °F 41.9 °F 32.0 °F 57% 30.39 in - North 9.2 mph - N/A   Clear
5:55 AM 46.4 °F 41.5 °F 32.0 °F 57% 30.39 in - North 10.4 mph - N/A   Clear
6:55 AM 46.4 °F 41.1 °F 32.0 °F 57% 30.39 in - North 11.5 mph - N/A   Clear
7:55 AM 48.2 °F - 33.8 °F 58% 30.42 in - North 8.1 mph - N/A   Clear
8:55 AM 50.0 °F - 33.8 °F 54% 30.42 in - North 5.8 mph - N/A   Clear
9:55 AM 50.0 °F - 33.8 °F 54% 30.42 in - Variable 3.5 mph - N/A   Clear
10:55 AM 51.8 °F - 35.6 °F 54% 30.45 in - Variable 3.5 mph - N/A   Clear
11:00 AM 52 °F - 36 °F 42%  in 47 mi 3.5 mph - -  
11:55 AM 53.6 °F - 37.4 °F 54% 30.45 in - Variable 3.5 mph - N/A   Clear
12:55 PM 55.4 °F - 35.6 °F 47% 30.45 in - Variable 3.5 mph - N/A   Clear
1:55 PM 55.4 °F - 39.2 °F 54% 30.45 in - Calm Calm - N/A   Clear
2:00 PM 56 °F - 40 °F 43%  in 44 mi Calm Calm - -  
2:55 PM 57.2 °F - 39.2 °F 51% 30.45 in - Calm Calm - N/A   Clear
3:55 PM 59.0 °F - 41.0 °F 51% 30.45 in - Calm Calm - N/A   Clear
4:55 PM 59.0 °F - 39.2 °F 48% 30.45 in - North 2.3 mph - N/A   Clear
5:00 PM 58 °F - 39 °F 38%  in 44 mi North 2.3 mph - -  
5:55 PM 57.2 °F - 37.4 °F 48% 30.45 in - North 2.3 mph - N/A   Clear
6:55 PM 57.2 °F - 37.4 °F 48% 30.45 in - North 3.5 mph - N/A   Clear
7:55 PM 57.2 °F - 37.4 °F 48% 30.45 in - North 3.5 mph - N/A   Clear
8:55 PM 55.4 °F - 37.4 °F 51% 30.45 in - North 3.5 mph - N/A   Clear
9:55 PM 55.4 °F - 35.6 °F 47% 30.48 in - Calm Calm - N/A   Clear
10:55 PM 55.4 °F - 37.4 °F 51% 30.48 in - Calm Calm - N/A   Clear
11:00 PM 54 °F - 38 °F 43%  in 31 mi Calm Calm - -  
11:55 PM 53.6 °F - 37.4 °F 54% 30.48 in - Calm Calm - N/A   Clear